Location: Hard Labor Creek Observatory
(33.6704°N, 83.5946°W)
Time: 02:50:57
(UTC-04:00)

N. Korean satellite - Visible Passes

Search period start: 28 September 2020 00:00
Search period end: 08 October 2020 00:00
Orbit: 455 x 503 km, 97.2° (Epoch: 27 September)

Date Brightness Start Highest point End Pass type
(mag) Time Alt. Az. Time Alt. Az. Time Alt. Az.
28 Sep 9.4 06:22:58 10° NE 06:25:46 21° E 06:28:30 10° SSE visible
01 Oct 8.4 06:37:45 10° NNE 06:41:03 34° E 06:44:15 10° SSE visible
02 Oct 9.8 06:12:45 10° ENE 06:14:52 15° E 06:16:58 10° SE visible
04 Oct 7.2 06:52:44 10° NNE 06:56:15 59° E 06:59:39 10° S visible
05 Oct 9.1 06:27:12 10° NE 06:30:07 24° E 06:32:59 10° SSE visible
06 Oct 10.2 06:03:10 10° E 06:03:55 11° E 06:04:38 10° ESE visible
